Boone, NC

12:41 PM EDT on May 27, 2017 (GMT -0400)
Boone

Weather History for KTNB - May, 2014

Change the Weather History Date:

Friday, May 30, 2014

  Actual Average (KGEV) Record (KGEV)
Temperature  
Mean Temperature 67 °F -  
Max Temperature 76 °F 72 °F 84 °F (1982)
Min Temperature 58 °F 50 °F 39 °F (1979)
Cooling Degree Days 2    
Growing Degree Days 17 (Base 50)    
Moisture  
Dew Point 60 °F    
Average Humidity 82    
Maximum Humidity 100    
Minimum Humidity 45    
Precipitation  
Precipitation 0.00 in - - ()
Sea Level Pressure  
Sea Level Pressure 30.18 in    
Wind  
Wind Speed 3 mph (WSW)    
Max Wind Speed 13 mph    
Max Gust Speed -    
Visibility 8 miles    
Events Rain , Thunderstorm    
Averages and records for this station are not official NWS values.
T = Trace of Precipitation, MM = Missing Value Source: NWS Daily Summary

Daily Weather History Graph

Daily Weather History Graph

Search for Another Location

Airport or City:

Trip Planner

Search our weather history database for the weather conditions in past years. The results will help you decide how hot, cold, wet, or windy it might be!

Date:

Astronomy

May. 30, 2014 Rise Set
Actual Time 6:11 AM EDT 8:37 PM EDT
Civil Twilight 5:41 AM EDT 9:07 PM EDT
Nautical Twilight 5:05 AM EDT 9:43 PM EDT
Astronomical Twilight 4:24 AM EDT 10:24 PM EDT
Moon 7:52 AM EDT (5/30) 10:15 PM EDT (5/30)
Length of Visible Light 15h 25m
Length of Day
14h 25m
Waxing Crescent, 4% of the Moon is Illuminated
May 30
Waxing Crescent
Jun 5
First Quarter
Jun 13
Full
Jun 19
Last Quarter
Jun 27
New

Hourly Weather History & Observations

Time (EDT) Temp. Dew Point Humidity Pressure Visibility Wind Dir Wind Speed Gust Speed Precip Events Conditions
12:15 AM 62.8 °F 62.6 °F 99% 30.20 in 10.0 mi Calm Calm - N/A Rain , Thunderstorm Light Thunderstorms and Rain
12:35 AM 62.6 °F 62.4 °F 99% 30.21 in 10.0 mi Calm Calm - N/A   Drizzle
12:55 AM 62.6 °F 62.6 °F 100% 30.20 in 10.0 mi SE 3.5 mph - N/A Rain Light Rain
1:15 AM 62.1 °F 61.9 °F 99% 30.20 in 10.0 mi SSE 5.8 mph - N/A   Scattered Clouds
1:35 AM 62.1 °F 61.9 °F 99% 30.20 in 10.0 mi Calm Calm - N/A   Scattered Clouds
1:55 AM 62.6 °F 61.2 °F 95% 30.19 in 10.0 mi Calm Calm - N/A   Mostly Cloudy
2:15 AM 62.6 °F 61.0 °F 94% 30.18 in 10.0 mi Calm Calm - N/A   Scattered Clouds
2:35 AM 60.8 °F 60.6 °F 99% 30.18 in 7.0 mi Calm Calm - N/A   Scattered Clouds
2:55 AM 60.8 °F 60.8 °F 100% 30.18 in 5.0 mi Calm Calm - N/A   Scattered Clouds
3:15 AM 61.0 °F 60.8 °F 99% 30.18 in 10.0 mi SSE 4.6 mph - N/A   Scattered Clouds
3:35 AM 61.2 °F 60.4 °F 97% 30.17 in 10.0 mi SSW 5.8 mph - N/A   Scattered Clouds
3:55 AM 61.9 °F 59.5 °F 92% 30.16 in 10.0 mi WNW 3.5 mph - N/A   Mostly Cloudy
4:15 AM 60.1 °F 59.4 °F 97% 30.16 in 10.0 mi Calm Calm - N/A   Scattered Clouds
4:35 AM 60.1 °F 59.9 °F 99% 30.16 in 10.0 mi Calm Calm - N/A   Scattered Clouds
4:55 AM 59.0 °F 58.8 °F 99% 30.16 in 4.0 mi WSW 3.5 mph - N/A   Clear
5:15 AM 58.1 °F 57.9 °F 99% 30.15 in 4.0 mi Calm Calm - N/A   Clear
5:35 AM 59.0 °F 59.0 °F 100% 30.15 in 10.0 mi Calm Calm - N/A   Clear
5:55 AM 58.1 °F 58.1 °F 100% 30.15 in 5.0 mi Calm Calm - N/A   Clear
6:15 AM 58.3 °F 58.3 °F 100% 30.15 in 10.0 mi West 4.6 mph - N/A   Clear
6:35 AM 58.1 °F 57.9 °F 99% 30.16 in 5.0 mi Calm Calm - N/A   Clear
6:55 AM 58.1 °F 58.1 °F 100% 30.16 in 5.0 mi Calm Calm - N/A   Clear
7:15 AM 58.3 °F 58.3 °F 100% 30.16 in 5.0 mi Calm Calm - N/A   Clear
7:35 AM 60.6 °F 59.9 °F 97% 30.16 in 7.0 mi WNW 4.6 mph - N/A   Clear
7:55 AM 62.1 °F 59.7 °F 92% 30.16 in 10.0 mi WNW 9.2 mph - N/A   Clear
8:15 AM 63.1 °F 59.9 °F 89% 30.16 in 10.0 mi WNW 9.2 mph - N/A   Clear
8:35 AM 63.9 °F 59.5 °F 86% 30.17 in 10.0 mi WNW 6.9 mph - N/A   Clear
8:55 AM 64.8 °F 57.6 °F 77% 30.17 in 10.0 mi WNW 9.2 mph - N/A   Clear
9:15 AM 65.3 °F 57.7 °F 76% 30.17 in 10.0 mi WNW 10.4 mph - N/A   Clear
9:35 AM 66.2 °F 57.7 °F 74% 30.17 in 10.0 mi West 9.2 mph - N/A   Clear
9:55 AM 67.3 °F 58.1 °F 72% 30.18 in 10.0 mi West 12.7 mph - N/A   Clear
10:15 AM 68.2 °F 58.6 °F 71% 30.19 in 10.0 mi WNW 8.1 mph - N/A   Clear
10:35 AM 68.9 °F 58.8 °F 70% 30.19 in 10.0 mi West 9.2 mph - N/A   Clear
10:55 AM 70.2 °F 58.3 °F 66% 30.19 in 10.0 mi WNW 9.2 mph - N/A   Clear
11:15 AM 71.6 °F 58.1 °F 62% 30.20 in 10.0 mi West 6.9 mph - N/A   Scattered Clouds
11:35 AM 73.9 °F 57.0 °F 55% 30.20 in 10.0 mi North 6.9 mph - N/A   Scattered Clouds
11:55 AM 74.1 °F 55.9 °F 53% 30.20 in 10.0 mi North 8.1 mph - N/A   Clear
12:15 PM 75.0 °F 54.9 °F 49% 30.21 in 10.0 mi NNW 8.1 mph - N/A   Clear
12:35 PM 74.5 °F 54.7 °F 50% 30.21 in 10.0 mi North 8.1 mph - N/A   Clear
12:55 PM 74.8 °F 53.8 °F 48% 30.20 in 10.0 mi NW 3.5 mph - N/A   Clear
1:15 PM 76.6 °F 54.0 °F 45% 30.19 in 10.0 mi North 9.2 mph - N/A   Clear
1:35 PM 76.3 °F 53.2 °F 45% 30.18 in 10.0 mi NW 5.8 mph - N/A   Clear
1:55 PM 75.7 °F 55.2 °F 49% 30.18 in 1.8 mi NE 4.6 mph - N/A Thunderstorm Unknown
2:15 PM 73.4 °F 60.8 °F 65% 30.17 in 1.2 mi SE 4.6 mph - N/A Thunderstorm Unknown
2:35 PM 76.5 °F 62.4 °F 62% 30.16 in 1.5 mi ESE 4.6 mph - N/A   Haze
2:55 PM 72.3 °F 60.6 °F 67% 30.17 in 0.8 mi ESE 4.6 mph - N/A Thunderstorm Haze
3:15 PM 69.3 °F 60.4 °F 73% 30.17 in 3.0 mi ESE 5.8 mph - N/A   Haze
3:35 PM 68.9 °F 59.7 °F 72% 30.17 in 5.0 mi ESE 6.9 mph - N/A   Haze
3:55 PM 68.2 °F 60.1 °F 75% 30.16 in 2.5 mi SE 9.2 mph - N/A Rain , Thunderstorm Light Thunderstorms and Rain
4:15 PM 69.8 °F 61.2 °F 74% 30.17 in 2.5 mi SSE 5.8 mph - N/A Thunderstorm Haze
4:55 PM 69.3 °F 62.1 °F 78% 30.16 in 0.8 mi SSW 5.8 mph - N/A Thunderstorm Haze
5:15 PM 69.4 °F 60.6 °F 73% 30.16 in 2.0 mi SW 9.2 mph - N/A Thunderstorm Haze
5:35 PM 71.2 °F 61.3 °F 71% 30.16 in 10.0 mi SW 9.2 mph - N/A   Clear
5:55 PM 71.8 °F 60.8 °F 68% 30.16 in 10.0 mi SSW 6.9 mph - N/A   Clear
6:35 PM 69.1 °F 60.4 °F 74% 30.16 in 10.0 mi South 8.1 mph - N/A Thunderstorm Scattered Clouds
6:55 PM 69.1 °F 59.9 °F 72% 30.16 in 10.0 mi SSW 8.1 mph - N/A Thunderstorm Clear
7:15 PM 68.9 °F 59.2 °F 71% 30.16 in 10.0 mi SSW 3.5 mph - N/A   Clear
7:35 PM 67.6 °F 59.4 °F 75% 30.17 in 10.0 mi SSE 3.5 mph - N/A   Clear
8:15 PM 66.7 °F 59.2 °F 77% 30.17 in 10.0 mi Calm Calm - N/A   Drizzle
8:35 PM 65.1 °F 62.1 °F 90% 30.17 in 10.0 mi Calm Calm - N/A   Clear
8:55 PM 64.8 °F 61.7 °F 90% 30.17 in 10.0 mi Calm Calm - N/A   Clear
9:15 PM 63.1 °F 62.2 °F 97% 30.17 in 10.0 mi Calm Calm - N/A   Scattered Clouds
9:55 PM 62.8 °F 62.2 °F 98% 30.19 in 10.0 mi Calm Calm - N/A   Clear
10:15 PM 63.5 °F 62.4 °F 96% 30.20 in 10.0 mi Calm Calm - N/A   Clear
10:35 PM 63.5 °F 62.6 °F 97% 30.20 in 10.0 mi Calm Calm - N/A   Clear
10:55 PM 64.4 °F 62.2 °F 93% 30.20 in 10.0 mi Calm Calm - N/A   Clear
11:15 PM 63.9 °F 63.0 °F 97% 30.21 in 10.0 mi Calm Calm - N/A   Clear
11:35 PM 63.0 °F 62.6 °F 99% 30.21 in 10.0 mi Calm Calm - N/A   Scattered Clouds
11:55 PM 62.6 °F 62.1 °F 98% 30.21 in 10.0 mi Calm Calm - N/A   Scattered Clouds